Location: Mount Cross
(36.6390°N, 79.4878°W)
Time: 09:31:30
(UTC+00:00)

Vanguard 1 Rocket - Pass Details

Date: 31 March 2023
Orbit: 654 x 4221 km, 34.3° (Epoch: 01 June)

Event Time Altitude Azimuth Distance (km) Brightness Sun altitude
Rises 03:46:48 0° 254° (WSW) 8,444 12.5 -43.6°
Reaches altitude 10° 03:52:44 10° 254° (WSW) 7,414 12.1 -44.3°
Enters shadow 04:16:48 78° 210° (SSW) 3,388 9.9 -46.5°
Maximum altitude 04:18:06 81° 172° (S) 3,284 - -46.6°
Drops below altitude 10° 04:32:39 10° 88° (E) 4,637 - -47.7°
Sets 04:35:25 0° 87° (E) 5,289 - -47.9°
